User: anonymous   Login
Location: Baia Mare
(47.6567°N, 23.5850°E)
Time: 05:32:03
(UTC+03:00)
Language:

ISS - Orbit

View from above orbital plane
View from above orbital plane
View from above satellite
View from above satellite

Ground track
Ground track

The orbit data is extracted from the following two-line orbital elements,

1 25544U 98067A   19204.50665823  .00016717  00000-0  10270-3 0  9020
2 25544  51.6383 181.0835 0006539 172.4086 187.7165 15.50989319 20888
Epoch (UTC): 23 July 2019 12:09:35
Eccentricity: 0.0006539
inclination: 51.6383°
perigee height: 409 km
apogee height: 418 km
right ascension of ascending node: 181.0835°
argument of perigee: 172.4086°
revolutions per day: 15.50989319
mean anomaly at epoch: 187.7165°
orbit number at epoch: 2088

The dashed part of the orbit path shows where the satellite is in the earth's shadow,  

DLR